Year,Month,Day,Hour,Minute,Value (Times are PST for temperature in C)
2015,06,22,00,00,16.80
2015,06,22,00,01,16.80
2015,06,22,00,02,16.80
2015,06,22,00,03,16.80
2015,06,22,00,04,16.80
2015,06,22,00,05,16.80
2015,06,22,00,06,16.80
2015,06,22,00,07,16.80
2015,06,22,00,08,16.70
2015,06,22,00,09,16.70
2015,06,22,00,10,16.70
2015,06,22,00,11,16.60
2015,06,22,00,12,16.60
2015,06,22,00,13,16.60
2015,06,22,00,14,16.50
2015,06,22,00,15,16.50
2015,06,22,00,16,16.40
2015,06,22,00,17,16.40
2015,06,22,00,18,16.30
2015,06,22,00,19,16.30
2015,06,22,00,20,16.20
2015,06,22,00,21,16.20
2015,06,22,00,22,16.20
2015,06,22,00,23,16.10
2015,06,22,00,24,16.00
2015,06,22,00,25,15.90
2015,06,22,00,26,15.70
2015,06,22,00,27,15.60
2015,06,22,00,28,15.60
2015,06,22,00,29,15.50
2015,06,22,00,30,15.40
2015,06,22,00,31,15.30
2015,06,22,00,32,15.30
2015,06,22,00,33,15.20
2015,06,22,00,34,15.20
2015,06,22,00,35,15.10
2015,06,22,00,36,15.10
2015,06,22,00,37,15.00
2015,06,22,00,38,15.00
2015,06,22,00,39,15.00
2015,06,22,00,40,15.00
2015,06,22,00,41,15.10
2015,06,22,00,42,15.10
2015,06,22,00,43,15.10
2015,06,22,00,44,15.10
2015,06,22,00,45,15.10
2015,06,22,00,46,15.10
2015,06,22,00,47,15.00
2015,06,22,00,48,15.00
2015,06,22,00,49,15.00
2015,06,22,00,50,14.90
2015,06,22,00,51,14.90
2015,06,22,00,52,14.90
2015,06,22,00,53,14.90
2015,06,22,00,54,14.90
2015,06,22,00,55,14.80
2015,06,22,00,56,14.80
2015,06,22,00,57,14.70
2015,06,22,00,58,14.70
2015,06,22,00,59,14.70
2015,06,22,01,00,14.70
2015,06,22,01,01,14.60
2015,06,22,01,02,14.60
2015,06,22,01,03,14.50
2015,06,22,01,04,14.50
2015,06,22,01,05,14.40
2015,06,22,01,06,14.40
2015,06,22,01,07,14.30
2015,06,22,01,08,14.30
2015,06,22,01,09,14.30
2015,06,22,01,10,14.30
2015,06,22,01,11,14.20
2015,06,22,01,12,14.20
2015,06,22,01,13,14.20
2015,06,22,01,14,14.20
2015,06,22,01,15,14.20
2015,06,22,01,16,14.20
2015,06,22,01,17,14.20
2015,06,22,01,18,14.10
2015,06,22,01,19,14.10
2015,06,22,01,20,14.10
2015,06,22,01,21,14.10
2015,06,22,01,22,14.10
2015,06,22,01,23,14.10
2015,06,22,01,24,14.10
2015,06,22,01,25,14.00
2015,06,22,01,26,14.00
2015,06,22,01,27,13.90
2015,06,22,01,28,13.90
2015,06,22,01,29,13.80
2015,06,22,01,30,13.80
2015,06,22,01,31,13.80
2015,06,22,01,32,13.70
2015,06,22,01,33,13.70
2015,06,22,01,34,13.70
2015,06,22,01,35,13.70
2015,06,22,01,36,13.60
2015,06,22,01,37,13.60
2015,06,22,01,38,13.60
2015,06,22,01,39,13.60
2015,06,22,01,40,13.50
2015,06,22,01,41,13.50
2015,06,22,01,42,13.40
2015,06,22,01,43,13.40
2015,06,22,01,44,13.30
2015,06,22,01,45,13.30
2015,06,22,01,46,13.20
2015,06,22,01,47,13.20
2015,06,22,01,48,13.10
2015,06,22,01,49,13.10
2015,06,22,01,50,13.10
2015,06,22,01,51,13.00
2015,06,22,01,52,13.00
2015,06,22,01,53,12.90
2015,06,22,01,54,12.90
2015,06,22,01,55,12.90
2015,06,22,01,56,12.90
2015,06,22,01,57,12.90
2015,06,22,01,58,12.90
2015,06,22,01,59,12.90
2015,06,22,02,00,12.80
2015,06,22,02,01,12.80
2015,06,22,02,02,12.80
2015,06,22,02,03,12.80
2015,06,22,02,04,12.80
2015,06,22,02,05,12.80
2015,06,22,02,06,12.80
2015,06,22,02,07,12.70
2015,06,22,02,08,12.70
2015,06,22,02,09,12.70
2015,06,22,02,10,12.70
2015,06,22,02,11,12.80
2015,06,22,02,12,12.70
2015,06,22,02,13,12.70
2015,06,22,02,14,12.70
2015,06,22,02,15,12.70
2015,06,22,02,16,12.70
2015,06,22,02,17,12.70
2015,06,22,02,18,12.70
2015,06,22,02,19,12.70
2015,06,22,02,20,12.70
2015,06,22,02,21,12.70
2015,06,22,02,22,12.70
2015,06,22,02,23,12.60
2015,06,22,02,24,12.60
2015,06,22,02,25,12.60
2015,06,22,02,26,12.60
2015,06,22,02,27,12.50
2015,06,22,02,28,12.50
2015,06,22,02,29,12.50
2015,06,22,02,30,12.40
2015,06,22,02,31,12.40
2015,06,22,02,32,12.40
2015,06,22,02,33,12.30
2015,06,22,02,34,12.30
2015,06,22,02,35,12.30
2015,06,22,02,36,12.30
2015,06,22,02,37,12.30
2015,06,22,02,38,12.30
2015,06,22,02,39,12.30
2015,06,22,02,40,12.20
2015,06,22,02,41,12.20
2015,06,22,02,42,12.20
2015,06,22,02,43,12.20
2015,06,22,02,44,12.10
2015,06,22,02,45,12.10
2015,06,22,02,46,12.10
2015,06,22,02,47,12.10
2015,06,22,02,48,12.10
2015,06,22,02,49,12.10
2015,06,22,02,50,12.10
2015,06,22,02,51,12.10
2015,06,22,02,52,12.10
2015,06,22,02,53,12.20
2015,06,22,02,54,12.20
2015,06,22,02,55,12.20
2015,06,22,02,56,12.10
2015,06,22,02,57,12.10
2015,06,22,02,58,12.10
2015,06,22,02,59,12.10
2015,06,22,03,00,12.10
2015,06,22,03,01,12.00
2015,06,22,03,02,12.00
2015,06,22,03,03,11.90
2015,06,22,03,04,11.90
2015,06,22,03,05,11.90
2015,06,22,03,06,11.90
2015,06,22,03,07,11.90
2015,06,22,03,08,11.90
2015,06,22,03,09,11.80
2015,06,22,03,10,11.80
2015,06,22,03,11,11.80
2015,06,22,03,12,11.80
2015,06,22,03,13,11.80
2015,06,22,03,14,11.70
2015,06,22,03,15,11.70
2015,06,22,03,16,11.70
2015,06,22,03,17,11.70
2015,06,22,03,18,11.70
2015,06,22,03,19,11.70
2015,06,22,03,20,11.70
2015,06,22,03,21,11.70
2015,06,22,03,22,11.70
2015,06,22,03,23,11.70
2015,06,22,03,24,11.70
2015,06,22,03,25,11.70
2015,06,22,03,26,11.70
2015,06,22,03,27,11.70
2015,06,22,03,28,11.70
2015,06,22,03,29,11.70
2015,06,22,03,30,11.70
2015,06,22,03,31,11.70
2015,06,22,03,32,11.70
2015,06,22,03,33,11.70
2015,06,22,03,34,11.60
2015,06,22,03,35,11.60
2015,06,22,03,36,11.60
2015,06,22,03,37,11.60
2015,06,22,03,38,11.60
2015,06,22,03,39,11.50
2015,06,22,03,40,11.50
2015,06,22,03,41,11.40
2015,06,22,03,42,11.40
2015,06,22,03,43,11.40
2015,06,22,03,44,11.30
2015,06,22,03,45,11.30
2015,06,22,03,46,11.30
2015,06,22,03,47,11.30
2015,06,22,03,48,11.30
2015,06,22,03,49,11.20
2015,06,22,03,50,11.20
2015,06,22,03,51,11.20
2015,06,22,03,52,11.20
2015,06,22,03,53,11.20
2015,06,22,03,54,11.20
2015,06,22,03,55,11.20
2015,06,22,03,56,11.20
2015,06,22,03,57,11.20
2015,06,22,03,58,11.20
2015,06,22,03,59,11.20
2015,06,22,04,00,11.20
2015,06,22,04,01,11.20
2015,06,22,04,02,11.20
2015,06,22,04,03,11.20
2015,06,22,04,04,11.20
2015,06,22,04,05,11.20
2015,06,22,04,06,11.20
2015,06,22,04,07,11.20
2015,06,22,04,08,11.20
2015,06,22,04,09,11.10
2015,06,22,04,10,11.10
2015,06,22,04,11,11.10
2015,06,22,04,12,11.10
2015,06,22,04,13,11.10
2015,06,22,04,14,11.10
2015,06,22,04,15,11.00
2015,06,22,04,16,11.00
2015,06,22,04,17,11.00
2015,06,22,04,18,11.00
2015,06,22,04,19,10.90
2015,06,22,04,20,10.90
2015,06,22,04,21,10.90
2015,06,22,04,22,10.80
2015,06,22,04,23,10.80
2015,06,22,04,24,10.80
2015,06,22,04,25,10.80
2015,06,22,04,26,10.80
2015,06,22,04,27,10.70
2015,06,22,04,28,10.70
2015,06,22,04,29,10.70
2015,06,22,04,30,10.70
2015,06,22,04,31,10.60
2015,06,22,04,32,10.60
2015,06,22,04,33,10.60
2015,06,22,04,34,10.60
2015,06,22,04,35,10.60
2015,06,22,04,36,10.60
2015,06,22,04,37,10.60
2015,06,22,04,38,10.70
2015,06,22,04,39,10.70
2015,06,22,04,40,10.70
2015,06,22,04,41,10.70
2015,06,22,04,42,10.70
2015,06,22,04,43,10.70
2015,06,22,04,44,10.60
2015,06,22,04,45,10.60
2015,06,22,04,46,10.60
2015,06,22,04,47,10.60
2015,06,22,04,48,10.60
2015,06,22,04,49,10.50
2015,06,22,04,50,10.50
2015,06,22,04,51,10.40
2015,06,22,04,52,10.40
2015,06,22,04,53,10.40
2015,06,22,04,54,10.40
2015,06,22,04,55,10.30
2015,06,22,04,56,10.30
2015,06,22,04,57,10.30
2015,06,22,04,58,10.30
2015,06,22,04,59,10.30
2015,06,22,05,00,10.30
2015,06,22,05,01,10.30
2015,06,22,05,02,10.30
2015,06,22,05,03,10.30
2015,06,22,05,04,10.40
2015,06,22,05,05,10.40
2015,06,22,05,06,10.40
2015,06,22,05,07,10.40
2015,06,22,05,08,10.30
2015,06,22,05,09,10.20
2015,06,22,05,10,10.10
2015,06,22,05,11,10.10
2015,06,22,05,12,10.00
2015,06,22,05,13,10.00
2015,06,22,05,14,9.90
2015,06,22,05,15,9.90
2015,06,22,05,16,9.90
2015,06,22,05,17,9.90
2015,06,22,05,18,9.90
2015,06,22,05,19,9.80
2015,06,22,05,20,9.80
2015,06,22,05,21,9.80
2015,06,22,05,22,9.90
2015,06,22,05,23,9.90
2015,06,22,05,24,9.90
2015,06,22,05,25,9.90
2015,06,22,05,26,9.90
2015,06,22,05,27,9.90
2015,06,22,05,28,9.90
2015,06,22,05,29,9.90
2015,06,22,05,30,9.90
2015,06,22,05,31,9.90
2015,06,22,05,32,9.90
2015,06,22,05,33,9.90
2015,06,22,05,34,9.90
2015,06,22,05,35,9.90
2015,06,22,05,36,10.00
2015,06,22,05,37,10.00
2015,06,22,05,38,10.00
2015,06,22,05,39,10.00
2015,06,22,05,40,10.00
2015,06,22,05,41,10.10
2015,06,22,05,42,10.10
2015,06,22,05,43,10.20
2015,06,22,05,44,10.20
2015,06,22,05,45,10.20
2015,06,22,05,46,10.20
2015,06,22,05,47,10.20
2015,06,22,05,48,10.20
2015,06,22,05,49,10.20
2015,06,22,05,50,10.20
2015,06,22,05,51,10.20
2015,06,22,05,52,10.20
2015,06,22,05,53,10.20
2015,06,22,05,54,10.20
2015,06,22,05,55,10.20
2015,06,22,05,56,10.30
2015,06,22,05,57,10.30
2015,06,22,05,58,10.30
2015,06,22,05,59,10.30
2015,06,22,06,00,10.40
2015,06,22,06,01,10.40
2015,06,22,06,02,10.40
2015,06,22,06,03,10.50
2015,06,22,06,04,10.50
2015,06,22,06,05,10.50
2015,06,22,06,06,10.60
2015,06,22,06,07,10.60
2015,06,22,06,08,10.70
2015,06,22,06,09,10.70
2015,06,22,06,10,10.80
2015,06,22,06,11,10.80
2015,06,22,06,12,10.90
2015,06,22,06,13,10.90
2015,06,22,06,14,11.00
2015,06,22,06,15,11.10
2015,06,22,06,16,11.10
2015,06,22,06,17,11.10
2015,06,22,06,18,11.10
2015,06,22,06,19,11.10
2015,06,22,06,20,11.10
2015,06,22,06,21,11.20
2015,06,22,06,22,11.30
2015,06,22,06,23,11.30
2015,06,22,06,24,11.40
2015,06,22,06,25,11.60
2015,06,22,06,26,11.70
2015,06,22,06,27,11.90
2015,06,22,06,28,12.10
2015,06,22,06,29,12.30
2015,06,22,06,30,12.50
2015,06,22,06,31,12.70
2015,06,22,06,32,12.90
2015,06,22,06,33,13.00
2015,06,22,06,34,13.20
2015,06,22,06,35,13.30
2015,06,22,06,36,13.40
2015,06,22,06,37,13.50
2015,06,22,06,38,13.60
2015,06,22,06,39,13.70
2015,06,22,06,40,13.80
2015,06,22,06,41,13.80
2015,06,22,06,42,13.90
2015,06,22,06,43,14.00
2015,06,22,06,44,14.10
2015,06,22,06,45,14.10
2015,06,22,06,46,14.20
2015,06,22,06,47,14.30
2015,06,22,06,48,14.30
2015,06,22,06,49,14.40
2015,06,22,06,50,14.50
2015,06,22,06,51,14.50
2015,06,22,06,52,14.60
2015,06,22,06,53,14.70
2015,06,22,06,54,14.70
2015,06,22,06,55,14.80
2015,06,22,06,56,14.80
2015,06,22,06,57,14.90
2015,06,22,06,58,14.90
2015,06,22,06,59,15.00
2015,06,22,07,00,15.10
2015,06,22,07,01,15.10
2015,06,22,07,02,15.20
2015,06,22,07,03,15.20
2015,06,22,07,04,15.20
2015,06,22,07,05,15.30
2015,06,22,07,06,15.30
2015,06,22,07,07,15.40
2015,06,22,07,08,15.40
2015,06,22,07,09,15.40
2015,06,22,07,10,15.50
2015,06,22,07,11,15.50
2015,06,22,07,12,15.60
2015,06,22,07,13,15.60
2015,06,22,07,14,15.70
2015,06,22,07,15,15.70
2015,06,22,07,16,15.70
2015,06,22,07,17,15.80
2015,06,22,07,18,15.80
2015,06,22,07,19,15.80
2015,06,22,07,20,15.90
2015,06,22,07,21,15.90
2015,06,22,07,22,15.90
2015,06,22,07,23,16.00
2015,06,22,07,24,16.00
2015,06,22,07,25,16.10
2015,06,22,07,26,16.10
2015,06,22,07,27,16.10
2015,06,22,07,28,16.10
2015,06,22,07,29,16.10
2015,06,22,07,30,16.10
2015,06,22,07,31,16.00
2015,06,22,07,32,16.00
2015,06,22,07,33,15.90
2015,06,22,07,34,15.90
2015,06,22,07,35,15.90
2015,06,22,07,36,15.90
2015,06,22,07,37,15.90
2015,06,22,07,38,16.00
2015,06,22,07,39,16.00
2015,06,22,07,40,16.00
2015,06,22,07,41,16.00
2015,06,22,07,42,16.00
2015,06,22,07,43,16.10
2015,06,22,07,44,16.10
2015,06,22,07,45,16.10
2015,06,22,07,46,16.20
2015,06,22,07,47,16.20
2015,06,22,07,48,16.30
2015,06,22,07,49,16.30
2015,06,22,07,50,16.40
2015,06,22,07,51,16.50
2015,06,22,07,52,16.50
2015,06,22,07,53,16.60
2015,06,22,07,54,16.60
2015,06,22,07,55,16.70
2015,06,22,07,56,16.70
2015,06,22,07,57,16.70
2015,06,22,07,58,16.80
2015,06,22,07,59,16.80
2015,06,22,08,00,16.80
2015,06,22,08,01,16.90
2015,06,22,08,02,16.90
2015,06,22,08,03,17.00
2015,06,22,08,04,17.00
2015,06,22,08,05,17.10
2015,06,22,08,06,17.10
2015,06,22,08,07,17.10
2015,06,22,08,08,17.20
2015,06,22,08,09,17.20
2015,06,22,08,10,17.20
2015,06,22,08,11,17.20
2015,06,22,08,12,17.30
2015,06,22,08,13,17.30
2015,06,22,08,14,17.30
2015,06,22,08,15,17.30
2015,06,22,08,16,17.30
2015,06,22,08,17,17.30
2015,06,22,08,18,17.30
2015,06,22,08,19,17.30
2015,06,22,08,20,17.30
2015,06,22,08,21,17.40
2015,06,22,08,22,17.40
2015,06,22,08,23,17.40
2015,06,22,08,24,17.50
2015,06,22,08,25,17.50
2015,06,22,08,26,17.60
2015,06,22,08,27,17.60
2015,06,22,08,28,17.70
2015,06,22,08,29,17.70
2015,06,22,08,30,17.70
2015,06,22,08,31,17.70
2015,06,22,08,32,17.70
2015,06,22,08,33,17.80
2015,06,22,08,34,17.80
2015,06,22,08,35,17.80
2015,06,22,08,36,17.90
2015,06,22,08,37,17.90
2015,06,22,08,38,18.00
2015,06,22,08,39,18.10
2015,06,22,08,40,18.10
2015,06,22,08,41,18.10
2015,06,22,08,42,18.10
2015,06,22,08,43,18.10
2015,06,22,08,44,18.10
2015,06,22,08,45,18.10
2015,06,22,08,46,18.10
2015,06,22,08,47,18.10
2015,06,22,08,48,18.10
2015,06,22,08,49,18.10
2015,06,22,08,50,18.10
2015,06,22,08,51,18.10
2015,06,22,08,52,18.20
2015,06,22,08,53,18.20
2015,06,22,08,54,18.20
2015,06,22,08,55,18.20
2015,06,22,08,56,18.30
2015,06,22,08,57,18.40
2015,06,22,08,58,18.40
2015,06,22,08,59,18.40
2015,06,22,09,00,18.50
2015,06,22,09,01,18.50
2015,06,22,09,02,18.60
2015,06,22,09,03,18.60
2015,06,22,09,04,18.70
2015,06,22,09,05,18.70
2015,06,22,09,06,18.70
2015,06,22,09,07,18.70
2015,06,22,09,08,18.70
2015,06,22,09,09,18.80
2015,06,22,09,10,18.90
2015,06,22,09,11,18.90
2015,06,22,09,12,19.00
2015,06,22,09,13,19.10
2015,06,22,09,14,19.10
2015,06,22,09,15,19.10
2015,06,22,09,16,19.20
2015,06,22,09,17,19.20
2015,06,22,09,18,19.20
2015,06,22,09,19,19.20
2015,06,22,09,20,19.30
2015,06,22,09,21,19.30
2015,06,22,09,22,19.40
2015,06,22,09,23,19.40
2015,06,22,09,24,19.40
2015,06,22,09,25,19.40
2015,06,22,09,26,19.40
2015,06,22,09,27,19.40
2015,06,22,09,28,19.50
2015,06,22,09,29,19.50
2015,06,22,09,30,19.60
2015,06,22,09,31,19.60
2015,06,22,09,32,19.70
2015,06,22,09,33,19.70
2015,06,22,09,34,19.70
2015,06,22,09,35,19.80
2015,06,22,09,36,19.80
2015,06,22,09,37,19.80
2015,06,22,09,38,19.80
2015,06,22,09,39,19.80
2015,06,22,09,40,19.80
2015,06,22,09,41,19.80
2015,06,22,09,42,19.80
2015,06,22,09,43,19.80
2015,06,22,09,44,19.80
2015,06,22,09,45,19.80
2015,06,22,09,46,19.70
2015,06,22,09,47,19.70
2015,06,22,09,48,19.80
2015,06,22,09,49,19.80
2015,06,22,09,50,19.80
2015,06,22,09,51,19.80
2015,06,22,09,52,19.80
2015,06,22,09,53,19.90
2015,06,22,09,54,19.90
2015,06,22,09,55,19.90
2015,06,22,09,56,20.00
2015,06,22,09,57,20.00
2015,06,22,09,58,20.10
2015,06,22,09,59,20.10
2015,06,22,10,00,20.10
2015,06,22,10,01,20.10
2015,06,22,10,02,20.10
2015,06,22,10,03,20.10
2015,06,22,10,04,20.20
2015,06,22,10,05,20.20
2015,06,22,10,06,20.20
2015,06,22,10,07,20.20
2015,06,22,10,08,20.20
2015,06,22,10,09,20.20
2015,06,22,10,10,20.20
2015,06,22,10,11,20.20
2015,06,22,10,12,20.30
2015,06,22,10,13,20.30
2015,06,22,10,14,20.30
2015,06,22,10,15,20.30
2015,06,22,10,16,20.30
2015,06,22,10,17,20.30
2015,06,22,10,18,20.30
2015,06,22,10,19,20.40
2015,06,22,10,20,20.40
2015,06,22,10,21,20.40
2015,06,22,10,22,20.40
2015,06,22,10,23,20.40
2015,06,22,10,24,20.50
2015,06,22,10,25,20.50
2015,06,22,10,26,20.40
2015,06,22,10,27,20.40
2015,06,22,10,28,20.30
2015,06,22,10,29,20.30
2015,06,22,10,30,20.30
2015,06,22,10,31,20.30
2015,06,22,10,32,20.40
2015,06,22,10,33,20.40
2015,06,22,10,34,20.50
2015,06,22,10,35,20.40
2015,06,22,10,36,20.40
2015,06,22,10,37,20.40
2015,06,22,10,38,20.40
2015,06,22,10,39,20.40
2015,06,22,10,40,20.30
2015,06,22,10,41,20.30
2015,06,22,10,42,20.30
2015,06,22,10,43,20.30
2015,06,22,10,44,20.30
2015,06,22,10,45,20.30
2015,06,22,10,46,20.40
2015,06,22,10,47,20.50
2015,06,22,10,48,20.60
2015,06,22,10,49,20.60
2015,06,22,10,50,20.70
2015,06,22,10,51,20.70
2015,06,22,10,52,20.70
2015,06,22,10,53,20.70
2015,06,22,10,54,20.70
2015,06,22,10,55,20.60
2015,06,22,10,56,20.60
2015,06,22,10,57,20.50
2015,06,22,10,58,20.50
2015,06,22,10,59,20.50
2015,06,22,11,00,20.50
2015,06,22,11,01,20.40
2015,06,22,11,02,20.50
2015,06,22,11,03,20.60
2015,06,22,11,04,20.60
2015,06,22,11,05,20.70
2015,06,22,11,06,20.80
2015,06,22,11,07,20.80
2015,06,22,11,08,20.90
2015,06,22,11,09,20.90
2015,06,22,11,10,20.90
2015,06,22,11,11,20.90
2015,06,22,11,12,20.90
2015,06,22,11,13,20.80
2015,06,22,11,14,20.80
2015,06,22,11,15,20.80
2015,06,22,11,16,20.90
2015,06,22,11,17,21.00
2015,06,22,11,18,21.10
2015,06,22,11,19,21.20
2015,06,22,11,20,21.20
2015,06,22,11,21,21.20
2015,06,22,11,22,21.30
2015,06,22,11,23,21.30
2015,06,22,11,24,21.30
2015,06,22,11,25,21.30
2015,06,22,11,26,21.20
2015,06,22,11,27,21.20
2015,06,22,11,28,21.20
2015,06,22,11,29,21.20
2015,06,22,11,30,21.30
2015,06,22,11,31,21.30
2015,06,22,11,32,21.40
2015,06,22,11,33,21.40
2015,06,22,11,34,21.50
2015,06,22,11,35,21.50
2015,06,22,11,36,21.60
2015,06,22,11,37,21.50
2015,06,22,11,38,21.50
2015,06,22,11,39,21.50
2015,06,22,11,40,21.60
2015,06,22,11,41,21.60
2015,06,22,11,42,21.60
2015,06,22,11,43,21.60
2015,06,22,11,44,21.60
2015,06,22,11,45,21.60
2015,06,22,11,46,21.60
2015,06,22,11,47,21.50
2015,06,22,11,48,21.50
2015,06,22,11,49,21.50
2015,06,22,11,50,21.60
2015,06,22,11,51,21.70
2015,06,22,11,52,21.80
2015,06,22,11,53,21.90
2015,06,22,11,54,22.00
2015,06,22,11,55,22.00
2015,06,22,11,56,22.10
2015,06,22,11,57,22.00
2015,06,22,11,58,21.90
2015,06,22,11,59,21.70
2015,06,22,12,00,21.60
2015,06,22,12,01,21.50
2015,06,22,12,02,21.50
2015,06,22,12,03,21.50
2015,06,22,12,04,21.60
2015,06,22,12,05,21.50
2015,06,22,12,06,21.40
2015,06,22,12,07,21.50
2015,06,22,12,08,21.50
2015,06,22,12,09,21.60
2015,06,22,12,10,21.60
2015,06,22,12,11,21.60
2015,06,22,12,12,21.50
2015,06,22,12,13,21.40
2015,06,22,12,14,21.40
2015,06,22,12,15,21.40
2015,06,22,12,16,21.40
2015,06,22,12,17,21.40
2015,06,22,12,18,21.40
2015,06,22,12,19,21.40
2015,06,22,12,20,21.40
2015,06,22,12,21,21.40
2015,06,22,12,22,21.40
2015,06,22,12,23,21.40
2015,06,22,12,24,21.30
2015,06,22,12,25,21.30
2015,06,22,12,26,21.30
2015,06,22,12,27,21.30
2015,06,22,12,28,21.30
2015,06,22,12,29,21.40
2015,06,22,12,30,21.40
2015,06,22,12,31,21.40
2015,06,22,12,32,21.40
2015,06,22,12,33,21.40
2015,06,22,12,34,21.50
2015,06,22,12,35,21.50
2015,06,22,12,36,21.50
2015,06,22,12,37,21.50
2015,06,22,12,38,21.50
2015,06,22,12,39,21.40
2015,06,22,12,40,21.50
2015,06,22,12,41,21.60
2015,06,22,12,42,21.60
2015,06,22,12,43,21.60
2015,06,22,12,44,21.60
2015,06,22,12,45,21.60
2015,06,22,12,46,21.60
2015,06,22,12,47,21.60
2015,06,22,12,48,21.60
2015,06,22,12,49,21.70
2015,06,22,12,50,21.80
2015,06,22,12,51,21.90
2015,06,22,12,52,21.90
2015,06,22,12,53,21.80
2015,06,22,12,54,21.80
2015,06,22,12,55,21.60
2015,06,22,12,56,21.60
2015,06,22,12,57,21.60
2015,06,22,12,58,21.50
2015,06,22,12,59,21.60
2015,06,22,13,00,21.50
2015,06,22,13,01,21.50
2015,06,22,13,02,21.60
2015,06,22,13,03,21.70
2015,06,22,13,04,21.70
2015,06,22,13,05,21.70
2015,06,22,13,06,21.70
2015,06,22,13,07,21.80
2015,06,22,13,08,21.90
2015,06,22,13,09,21.90
2015,06,22,13,10,21.90
2015,06,22,13,11,21.80
2015,06,22,13,12,21.70
2015,06,22,13,13,21.70
2015,06,22,13,14,21.70
2015,06,22,13,15,21.70
2015,06,22,13,16,21.70
2015,06,22,13,17,21.70
2015,06,22,13,18,21.80
2015,06,22,13,19,22.00
2015,06,22,13,20,22.10
2015,06,22,13,21,22.20
2015,06,22,13,22,22.10
2015,06,22,13,23,22.00
2015,06,22,13,24,22.00
2015,06,22,13,25,22.00
2015,06,22,13,26,22.00
2015,06,22,13,27,22.00
2015,06,22,13,28,22.00
2015,06,22,13,29,22.00
2015,06,22,13,30,22.00
2015,06,22,13,31,22.10
2015,06,22,13,32,22.00
2015,06,22,13,33,22.00
2015,06,22,13,34,21.90
2015,06,22,13,35,21.90
2015,06,22,13,36,21.90
2015,06,22,13,37,21.80
2015,06,22,13,38,21.80
2015,06,22,13,39,21.70
2015,06,22,13,40,21.70
2015,06,22,13,41,21.70
2015,06,22,13,42,21.60
2015,06,22,13,43,21.50
2015,06,22,13,44,21.40
2015,06,22,13,45,21.30
2015,06,22,13,46,21.30
2015,06,22,13,47,21.30
2015,06,22,13,48,21.30
2015,06,22,13,49,21.30
2015,06,22,13,50,21.50
2015,06,22,13,51,21.50
2015,06,22,13,52,21.50
2015,06,22,13,53,21.70
2015,06,22,13,54,21.70
2015,06,22,13,55,21.80
2015,06,22,13,56,21.90
2015,06,22,13,57,21.90
2015,06,22,13,58,21.90
2015,06,22,13,59,21.80
2015,06,22,14,00,21.80
2015,06,22,14,01,21.80
2015,06,22,14,02,21.90
2015,06,22,14,03,21.90
2015,06,22,14,04,21.90
2015,06,22,14,05,21.90
2015,06,22,14,06,22.00
2015,06,22,14,07,22.10
2015,06,22,14,08,22.20
2015,06,22,14,09,22.30
2015,06,22,14,10,22.30
2015,06,22,14,11,22.30
2015,06,22,14,12,22.30
2015,06,22,14,13,22.20
2015,06,22,14,14,22.10
2015,06,22,14,15,22.00
2015,06,22,14,16,21.90
2015,06,22,14,17,21.90
2015,06,22,14,18,21.90
2015,06,22,14,19,21.90
2015,06,22,14,20,21.90
2015,06,22,14,21,21.80
2015,06,22,14,22,21.80
2015,06,22,14,23,21.70
2015,06,22,14,24,21.80
2015,06,22,14,25,21.80
2015,06,22,14,26,21.90
2015,06,22,14,27,21.90
2015,06,22,14,28,21.90
2015,06,22,14,29,21.90
2015,06,22,14,30,21.90
2015,06,22,14,31,21.90
2015,06,22,14,32,21.90
2015,06,22,14,33,22.00
2015,06,22,14,34,22.00
2015,06,22,14,35,22.10
2015,06,22,14,36,22.20
2015,06,22,14,37,22.30
2015,06,22,14,38,22.30
2015,06,22,14,39,22.40
2015,06,22,14,40,22.40
2015,06,22,14,41,22.40
2015,06,22,14,42,22.50
2015,06,22,14,43,22.60
2015,06,22,14,44,22.60
2015,06,22,14,45,22.60
2015,06,22,14,46,22.70
2015,06,22,14,47,22.80
2015,06,22,14,48,22.80
2015,06,22,14,49,22.90
2015,06,22,14,50,23.00
2015,06,22,14,51,23.10
2015,06,22,14,52,23.10
2015,06,22,14,53,23.10
2015,06,22,14,54,23.20
2015,06,22,14,55,23.20
2015,06,22,14,56,23.10
2015,06,22,14,57,22.90
2015,06,22,14,58,22.70
2015,06,22,14,59,22.80
2015,06,22,15,00,22.90
2015,06,22,15,01,23.00
2015,06,22,15,02,23.10
2015,06,22,15,03,23.10
2015,06,22,15,04,23.10
2015,06,22,15,05,23.10
2015,06,22,15,06,23.20
2015,06,22,15,07,23.20
2015,06,22,15,08,23.20
2015,06,22,15,09,23.20
2015,06,22,15,10,23.10
2015,06,22,15,11,23.10
2015,06,22,15,12,23.10
2015,06,22,15,13,23.10
2015,06,22,15,14,23.10
2015,06,22,15,15,23.20
2015,06,22,15,16,23.20
2015,06,22,15,17,23.20
2015,06,22,15,18,23.20
2015,06,22,15,19,23.30
2015,06,22,15,20,23.30
2015,06,22,15,21,23.30
2015,06,22,15,22,23.40
2015,06,22,15,23,23.50
2015,06,22,15,24,23.60
2015,06,22,15,25,23.60
2015,06,22,15,26,23.70
2015,06,22,15,27,23.80
2015,06,22,15,28,23.70
2015,06,22,15,29,23.70
2015,06,22,15,30,23.70
2015,06,22,15,31,23.60
2015,06,22,15,32,23.60
2015,06,22,15,33,23.60
2015,06,22,15,34,23.70
2015,06,22,15,35,23.70
2015,06,22,15,36,23.70
2015,06,22,15,37,23.70
2015,06,22,15,38,23.70
2015,06,22,15,39,23.60
2015,06,22,15,40,23.60
2015,06,22,15,41,23.60
2015,06,22,15,42,23.60
2015,06,22,15,43,23.60
2015,06,22,15,44,23.70
2015,06,22,15,45,23.60
2015,06,22,15,46,23.60
2015,06,22,15,47,23.60
2015,06,22,15,48,23.50
2015,06,22,15,49,23.50
2015,06,22,15,50,23.40
2015,06,22,15,51,23.40
2015,06,22,15,52,23.40
2015,06,22,15,53,23.40
2015,06,22,15,54,23.40
2015,06,22,15,55,23.40
2015,06,22,15,56,23.40
2015,06,22,15,57,23.30
2015,06,22,15,58,23.30
2015,06,22,15,59,23.30
2015,06,22,16,00,23.30
2015,06,22,16,01,23.10
2015,06,22,16,02,23.00
2015,06,22,16,03,23.00
2015,06,22,16,04,23.00
2015,06,22,16,05,23.00
2015,06,22,16,06,22.90
2015,06,22,16,07,22.90
2015,06,22,16,08,23.00
2015,06,22,16,09,23.10
2015,06,22,16,10,23.10
2015,06,22,16,11,23.00
2015,06,22,16,12,22.90
2015,06,22,16,13,22.90
2015,06,22,16,14,23.00
2015,06,22,16,15,23.10
2015,06,22,16,16,23.20
2015,06,22,16,17,23.30
2015,06,22,16,18,23.40
2015,06,22,16,19,23.40
2015,06,22,16,20,23.50
2015,06,22,16,21,23.50
2015,06,22,16,22,23.50
2015,06,22,16,23,23.50
2015,06,22,16,24,23.60
2015,06,22,16,25,23.60
2015,06,22,16,26,23.60
2015,06,22,16,27,23.60
2015,06,22,16,28,23.60
2015,06,22,16,29,23.70
2015,06,22,16,30,23.70
2015,06,22,16,31,23.70
2015,06,22,16,32,23.80
2015,06,22,16,33,23.80
2015,06,22,16,34,23.90
2015,06,22,16,35,24.00
2015,06,22,16,36,24.00
2015,06,22,16,37,23.90
2015,06,22,16,38,23.90
2015,06,22,16,39,24.00
2015,06,22,16,40,24.00
2015,06,22,16,41,24.10
2015,06,22,16,42,24.00
2015,06,22,16,43,24.00
2015,06,22,16,44,23.90
2015,06,22,16,45,23.90
2015,06,22,16,46,24.00
2015,06,22,16,47,23.90
2015,06,22,16,48,23.90
2015,06,22,16,49,23.80
2015,06,22,16,50,23.80
2015,06,22,16,51,23.80
2015,06,22,16,52,23.80
2015,06,22,16,53,23.80
2015,06,22,16,54,23.90
2015,06,22,16,55,24.00
2015,06,22,16,56,24.00
2015,06,22,16,57,24.20
2015,06,22,16,58,24.30
2015,06,22,16,59,24.30
2015,06,22,17,00,24.40
2015,06,22,17,01,24.40
2015,06,22,17,02,24.40
2015,06,22,17,03,24.50
2015,06,22,17,04,24.50
2015,06,22,17,05,24.60
2015,06,22,17,06,24.70
2015,06,22,17,07,24.70
2015,06,22,17,08,24.70
2015,06,22,17,09,24.50
2015,06,22,17,10,24.30
2015,06,22,17,11,24.10
2015,06,22,17,12,24.10
2015,06,22,17,13,24.10
2015,06,22,17,14,24.20
2015,06,22,17,15,24.30
2015,06,22,17,16,24.40
2015,06,22,17,17,24.40
2015,06,22,17,18,24.30
2015,06,22,17,19,24.30
2015,06,22,17,20,24.20